Lumberton, NC

10:00 PM EDT on July 23, 2017 (GMT -0400)
Lumberton Municipal

Weather History for KLBT - August, 2013

Change the Weather History Date:

Wednesday, August 7, 2013

  Actual Average Record
Temperature  
Mean Temperature 79 °F 80 °F  
Max Temperature 89 °F 89 °F 104 °F (2007)
Min Temperature 68 °F 71 °F 53 °F (2004)
Degree Days  
Heating Degree Days 0 0  
Month to date heating degree days 0 0  
Since 1 June heating degree days 0 0  
Since 1 July heating degree days 0 0  
Cooling Degree Days 14 15  
Month to date cooling degree days 99 107  
Year to date cooling degree days 1186 1245  
Since 1 June cooling degree days 994 995  
Growing Degree Days 28 (Base 50)    
Moisture  
Dew Point 67 °F    
Average Humidity 70    
Maximum Humidity 97    
Minimum Humidity 43    
Precipitation  
Precipitation 0.00 in 0.20 in 0.73 in (2015)
Month to date precipitation 0.10 1.34  
Year to date precipitation 30.92 26.23  
Sea Level Pressure  
Sea Level Pressure 30.06 in    
Wind  
Wind Speed 4 mph (SE)    
Max Wind Speed 14 mph    
Max Gust Speed 17 mph    
Visibility 10 miles    
Events      
T = Trace of Precipitation, MM = Missing Value Source: NWS Daily Summary

Daily Weather History Graph

Daily Weather History Graph

Search for Another Location

Airport or City:

Trip Planner

Search our weather history database for the weather conditions in past years. The results will help you decide how hot, cold, wet, or windy it might be!

Date:

Astronomy

Aug. 07, 2013 Rise Set
Actual Time 6:31 AM EDT 8:12 PM EDT
Civil Twilight 6:03 AM EDT 8:39 PM EDT
Nautical Twilight 5:31 AM EDT 9:12 PM EDT
Astronomical Twilight 4:56 AM EDT 9:46 PM EDT
Moon 7:13 AM EDT (8/7) 8:24 PM EDT (8/7)
Length of Visible Light 14h 35m
Length of Day
13h 41m
New Moon, 1% of the Moon is Illuminated
Aug 7
New Moon
Aug 14
First Quarter
Aug 20
Full
Aug 28
Last Quarter
Sep 5
New

Hourly Weather History & Observations

Time (EDT) Temp. Heat Index Dew Point Humidity Pressure Visibility Wind Dir Wind Speed Gust Speed Precip Events Conditions
12:54 AM 70.0 °F - 66.9 °F 90% 30.06 in 10.0 mi Calm Calm - N/A   Clear
1:54 AM 69.1 °F - 66.0 °F 90% 30.05 in 10.0 mi Calm Calm - N/A   Clear
2:54 AM 68.0 °F - 66.0 °F 93% 30.05 in 10.0 mi Calm Calm - N/A   Clear
3:54 AM 69.1 °F - 66.0 °F 90% 30.05 in 10.0 mi Calm Calm - N/A   Mostly Cloudy
4:54 AM 71.1 °F - 68.0 °F 90% 30.06 in 10.0 mi Calm Calm - N/A   Overcast
5:54 AM 70.0 °F - 68.0 °F 93% 30.06 in 10.0 mi Calm Calm - N/A   Overcast
6:54 AM 71.1 °F - 68.0 °F 90% 30.08 in 10.0 mi Calm Calm - N/A   Overcast
7:54 AM 73.0 °F - 69.1 °F 87% 30.08 in 10.0 mi SSE 3.5 mph - N/A   Overcast
8:54 AM 75.0 °F - 68.0 °F 79% 30.09 in 10.0 mi ESE 5.8 mph - N/A   Overcast
9:54 AM 81.0 °F 84.1 °F 69.1 °F 67% 30.09 in 10.0 mi East 9.2 mph - N/A   Mostly Cloudy
10:54 AM 82.9 °F 85.4 °F 66.9 °F 58% 30.09 in 10.0 mi Variable 4.6 mph - N/A   Partly Cloudy
11:54 AM 86.0 °F 88.2 °F 66.0 °F 51% 30.09 in 10.0 mi Variable 5.8 mph - N/A   Clear
12:54 PM 88.0 °F 88.7 °F 63.0 °F 43% 30.09 in 10.0 mi Variable 5.8 mph - N/A   Mostly Cloudy
1:54 PM 86.0 °F 87.6 °F 64.9 °F 49% 30.08 in 10.0 mi ESE 5.8 mph - N/A   Mostly Cloudy
2:54 PM 88.0 °F 88.7 °F 63.0 °F 43% 30.06 in 10.0 mi SSE 8.1 mph - N/A   Scattered Clouds
3:54 PM 88.0 °F 89.6 °F 64.9 °F 46% 30.04 in 10.0 mi Variable 5.8 mph - N/A   Clear
4:54 PM 87.1 °F 89.9 °F 66.9 °F 51% 30.04 in 10.0 mi Variable 6.9 mph - N/A   Clear
5:54 PM 86.0 °F 90.1 °F 69.1 °F 57% 30.03 in 10.0 mi SSE 12.7 mph 17.3 mph N/A   Mostly Cloudy
6:54 PM 82.9 °F 85.8 °F 68.0 °F 60% 30.02 in 10.0 mi SE 6.9 mph - N/A   Clear
7:54 PM 82.0 °F 85.5 °F 69.1 °F 65% 30.03 in 10.0 mi SSE 6.9 mph - N/A   Clear
8:54 PM 79.0 °F - 69.1 °F 72% 30.04 in 10.0 mi Calm Calm - N/A   Clear
9:54 PM 75.9 °F - 70.0 °F 82% 30.05 in 10.0 mi SE 3.5 mph - N/A   Clear
10:54 PM 75.0 °F - 71.1 °F 87% 30.06 in 10.0 mi ESE 3.5 mph - N/A   Clear
11:54 PM 73.0 °F - 70.0 °F 90% 30.06 in 10.0 mi Calm Calm - N/A   Clear